EHI
51 51 50 49 47 42 35 32 29 27 26 22 18 17 20 23 25 24 19 14 15 17 14 12 13 14 11 9 8 5 4 6 7 6 6 10 14 13 12 12 10 7 6
48 46 45 46 45 40 35 31 29 27 24 22 19 19 21 24 25 23 20 16 14 15 16 14 14 14 13 12 10 7 5 6 7 6 7 10 14 14 14 12 9 7 5
44 43 43 43 42 39 36 34 31 27 23 22 21 20 22 23 23 22 20 17 14 14 16 16 15 15 14 13 12 10 8 7 7 7 8 10 13 14 14 12 10 7 6
43 43 43 42 41 39 36 34 31 25 22 22 21 20 21 22 22 21 20 18 16 15 14 14 14 13 11 10 11 12 11 9 8 8 8 9 10 12 13 13 11 9 7
43 44 43 41 38 35 31 29 25 21 19 21 20 18 18 18 17 17 17 17 17 15 13 12 11 8 6 6 6 8 9 8 7 6 6 6 8 11 12 13 12 10 9
39 40 40 37 32 28 25 23 20 16 16 17 17 15 13 11 8 7 10 14 15 14 12 10 7 4 3 3 3 3 4 4 5 5 4 5 6 9 12 13 11 9 8
34 35 35 32 27 24 21 19 16 15 15 16 15 12 10 7 2 1 3 8 11 12 10 8 6 3 2 3 3 3 4 4 3 3 4 4 5 8 12 12 10 7 6
32 32 30 26 24 22 20 19 17 16 17 17 15 12 10 6 2 0 1 4 8 10 9 8 8 6 3 3 6 8 9 7 4 2 3 3 4 6 9 11 8 6 6
31 30 26 22 21 22 22 21 19 17 17 16 13 12 12 8 3 0 1 4 8 10 9 8 8 7 5 3 6 10 12 11 6 2 2 3 3 3 5 8 7 6 6
26 26 24 20 19 19 20 19 18 16 15 13 12 12 13 11 5 1 1 5 9 9 7 5 4 3 3 3 5 9 11 10 7 5 4 4 3 3 5 7 8 9 8
24 23 22 18 15 15 16 17 16 15 14 13 11 12 13 12 6 1 1 4 7 7 6 4 2 0 1 1 3 6 7 6 6 6 5 5 6 8 10 11 12 13 13
22 21 19 17 13 12 14 14 13 13 12 11 11 10 10 10 6 2 1 1 3 4 4 3 2 0 0 0 1 2 2 2 4 5 4 4 7 10 13 16 17 18 17
18 17 18 16 13 11 12 11 10 10 9 9 9 8 8 9 7 4 1 0 0 1 2 2 1 0 0 0 0 0 0 0 2 3 2 2 5 8 12 16 19 18 16
15 16 17 15 13 12 12 10 8 8 8 7 7 7 8 9 8 6 3 2 1 0 0 1 1 1 1 1 1 1 1 1 2 2 1 2 3 6 10 15 16 15 12
16 16 16 15 14 14 13 11 9 9 8 6 6 6 6 7 6 5 4 3 2 1 1 2 3 3 4 4 4 3 3 3 3 2 1 1 1 4 8 12 14 12 11
15 15 15 16 16 16 15 13 11 8 6 4 3 4 4 3 2 2 2 2 1 1 1 4 6 7 6 6 6 6 5 4 5 5 3 1 1 2 5 9 11 11 9
13 14 14 14 15 16 15 13 11 8 6 4 2 2 2 1 0 0 0 0 0 0 2 4 6 7 6 5 5 7 6 6 7 8 7 4 2 2 4 6 7 7 7
11 12 13 12 12 12 12 10 9 9 8 6 2 1 1 0 0 0 0 0 0 0 1 3 4 4 3 3 3 5 5 6 8 9 9 7 5 3 3 4 4 4 4
9 9 11 11 10 10 9 7 6 7 7 5 2 0 0 0 0 0 0 0 0 1 1 2 2 2 1 2 2 3 3 3 5 7 7 7 5 4 4 4 4 4 4
6 6 7 8 7 7 6 5 4 3 3 2 1 0 0 0 0 0 0 0 1 2 2 2 2 2 2 2 2 1 1 1 3 4 4 4 5 5 6 7 7 6 6
3 2 2 3 3 2 2 2 1 1 1 1 0 0 0 0 1 1 1 1 1 2 2 2 3 3 2 2 2 1 0 0 1 2 2 3 4 5 6 6 7 6 5
1 1 1 1 0 0 0 0 0 0 0 0 0 0 0 1 2 2 1 1 1 1 1 2 3 3 3 2 1 0 0 0 1 2 2 3 3 4 4 4 4 4 4
0 1 2 2 1 0 0 0 0 0 0 0 0 0 0 1 2 2 1 1 0 0 0 1 2 2 2 2 1 0 0 0 2 3 3 3 3 3 4 4 3 3 3
0 1 2 3 2 0 0 0 0 0 0 0 0 0 0 1 1 1 1 1 1 0 1 1 1 1 1 1 1 1 0 0 1 1 2 2 2 3 4 4 3 3 3
0 0 1 2 1 0 0 0 0 0 0 0 0 0 0 0 0 0 1 2 1 0 1 2 2 2 1 1 1 1 0 0 0 0 0 1 1 1 1 1 1 1 2
0 0 0 1 0 0 0 0 0 0 0 0 0 0 0 0 0 0 1 1 0 0 1 1 2 2 2 1 1 1 0 0 0 0 0 0 0 0 0 0 0 0 1
Wind_Speed
4 3 2 3 3 2 2 2 2 2 1 2 2 2 2 2 2 2 2 2 2 2 2 2 1 1 2 2 2 2 1 1 2 2 1 0 0 1 2 2 4 4 5
4 3 2 2 2 2 2 2 2 2 2 2 2 2 2 2 2 2 3 3 2 2 2 2 2 2 2 2 2 2 2 2 1 2 2 1 2 2 2 3 3 4 4
4 4 2 2 2 1 1 1 1 1 1 1 2 2 3 3 3 3 3 3 3 2 2 2 2 2 2 2 3 2 2 2 1 2 3 2 2 1 2 3 4 2 4
2 2 2 1 1 1 1 1 1 1 2 1 2 2 3 2 2 2 3 2 2 2 2 2 2 2 2 3 3 2 2 2 2 2 2 2 1 1 1 2 3 2 3
2 1 1 1 1 1 1 1 1 1 2 2 2 2 2 2 2 2 3 3 2 3 2 2 2 1 2 2 2 1 2 2 2 2 2 2 2 1 1 2 3 3 3
2 1 1 1 1 1 1 1 1 1 2 1 2 1 2 2 1 1 2 2 2 3 2 2 2 3 3 3 3 3 3 3 3 2 2 2 2 2 1 2 2 2 3
1 1 1 1 1 2 2 1 1 1 1 1 2 2 2 1 1 2 3 3 3 3 3 3 4 2 2 2 3 5 5 6 6 4 4 3 3 2 2 3 3 3 4
1 0 0 0 1 1 1 1 1 1 1 1 2 2 1 1 2 3 4 4 4 3 3 3 2 2 2 2 3 3 4 4 5 5 4 4 4 2 3 4 4 4 4
1 0 0 1 1 1 1 1 1 1 1 2 2 2 1 1 3 4 4 3 3 3 3 3 2 2 1 2 3 3 4 4 5 6 6 6 6 5 4 3 3 4 5
1 2 2 2 1 1 1 1 1 1 2 2 2 2 2 2 3 4 4 3 3 3 2 2 2 2 1 1 2 3 4 4 4 4 4 6 7 7 8 6 4 4 4
2 2 2 2 1 1 1 1 1 1 2 2 2 2 2 1 2 3 3 2 2 3 2 2 1 2 2 4 4 4 5 5 5 5 4 5 5 5 5 5 5 5 4
2 2 2 2 2 2 1 1 1 1 2 2 2 2 1 1 1 2 4 4 4 3 3 2 1 3 4 6 5 6 6 5 4 4 4 4 3 3 4 5 5 6 5
2 2 1 1 1 1 0 1 2 1 1 1 1 1 1 1 0 1 3 5 5 3 3 4 5 5 5 5 7 7 5 3 4 4 5 4 3 3 3 3 4 4 5
2 2 1 0 0 1 1 1 1 1 2 2 2 2 1 1 1 1 2 2 4 4 4 5 6 6 6 6 5 4 4 4 4 4 4 4 3 3 3 2 3 3 3
2 2 2 1 0 0 1 1 1 1 1 2 2 2 2 2 2 2 2 2 3 3 3 3 3 3 3 2 2 3 3 3 3 4 4 4 4 3 3 2 2 3 4
2 3 3 3 2 1 0 1 4 2 2 2 2 1 0 1 1 2 3 4 4 3 2 3 3 3 3 3 3 3 3 2 2 3 3 3 4 4 4 3 3 3 4
3 3 3 3 2 2 2 1 1 1 2 2 1 1 1 2 3 3 3 5 6 3 2 2 2 3 3 3 3 3 3 3 2 3 3 3 3 4 3 3 3 3 3
3 3 2 2 2 2 2 2 1 1 1 1 1 1 2 3 3 4 2 2 3 1 2 2 3 2 2 3 3 3 3 3 3 3 3 3 3 4 4 3 3 4 4
3 3 2 2 2 2 2 2 2 2 2 2 1 1 2 2 3 3 1 1 2 3 3 3 3 3 3 3 3 3 3 3 3 3 4 4 4 4 4 4 4 4 4
2 2 2 3 2 2 2 2 2 2 2 2 2 2 1 1 1 1 0 0 1 2 3 3 3 3 3 3 4 3 4 4 4 4 4 4 4 4 5 6 5 4 3
3 2 2 2 2 2 2 2 2 2 2 2 2 3 3 2 2 2 2 2 2 3 3 3 3 3 3 3 3 4 4 4 4 4 5 5 5 5 5 5 6 5 4
3 3 2 2 2 2 2 2 2 2 2 2 2 2 2 2 2 2 3 2 3 3 3 3 4 3 3 3 4 4 4 4 4 5 5 5 5 5 5 5 5 5 4
3 3 2 2 2 1 2 2 2 2 2 2 2 2 1 2 2 3 3 3 3 3 3 3 4 4 4 3 3 3 4 4 4 5 5 5 5 6 5 5 6 6 5
4 3 3 2 2 2 2 2 2 2 3 3 2 2 2 2 2 3 3 3 3 3 3 3 3 4 5 4 3 3 3 4 5 5 7 6 6 5 5 5 5 6 5
4 4 3 3 2 2 3 3 3 3 3 3 3 2 3 3 3 3 3 3 3 3 4 4 3 3 4 5 4 4 3 4 4 5 5 5 7 6 5 5 5 5 5
3 3 3 3 2 2 2 2 2 3 3 3 3 2 2 2 2 3 3 4 4 3 3 3 4 4 5 3 4 4 3 4 5 5 5 5 6 6 6 5 6 6 6
Wind_Direction
167 176 177 182 195 192 213 225 224 237 236 241 240 245 224 219 228 234 245 246 241 248 267 257 257 294 322 314 312 303 283 282 277 294 301 304 158 147 153 195 186 189 195
164 155 161 163 180 204 218 221 226 225 226 223 225 230 240 236 235 238 253 252 254 247 257 274 282 268 263 280 289 288 289 274 255 276 286 270 246 216 186 228 225 209 203
159 163 167 167 179 213 239 228 224 225 236 236 231 227 238 247 248 251 255 254 262 267 256 251 263 273 271 272 270 277 286 294 270 258 260 243 236 228 213 249 254 252 233
142 159 150 168 181 209 243 230 213 222 230 234 246 243 249 251 253 260 262 256 252 263 261 250 253 258 265 274 268 269 278 294 286 273 276 267 245 225 224 249 260 249 255
98 104 118 142 174 206 223 241 241 243 246 233 244 248 249 244 258 267 265 259 251 258 260 250 233 223 226 258 279 285 288 281 279 273 271 285 273 264 252 265 269 263 252
82 87 113 148 182 220 231 235 241 240 245 237 245 257 270 280 313 279 266 280 271 265 272 270 240 208 215 232 248 246 239 253 265 271 269 270 266 264 265 269 277 280 274
105 106 140 178 199 222 235 210 231 240 253 262 256 244 245 282 283 271 272 275 273 267 271 272 275 267 226 252 247 241 239 239 235 247 266 274 270 260 270 278 277 279 273
112 98 261 207 224 243 236 238 254 285 280 271 266 258 246 263 245 248 259 255 271 272 275 273 266 298 300 309 287 270 256 249 242 235 247 267 277 277 260 260 261 264 263
42 6 336 321 314 304 294 307 301 282 279 270 269 264 255 251 244 244 247 248 252 256 251 259 251 248 272 308 291 286 283 278 265 256 243 247 255 261 264 274 271 270 271
17 21 17 7 359 330 332 338 324 299 275 270 267 271 261 247 234 236 239 253 257 262 254 237 224 221 223 252 264 279 278 283 293 288 269 253 248 245 239 233 244 255 268
27 36 32 22 9 7 22 22 333 293 285 276 264 255 260 252 203 212 217 260 285 287 277 266 236 202 233 250 252 258 266 280 284 277 264 251 240 237 228 221 225 233 247
26 25 22 13 344 21 34 339 305 283 273 269 271 270 259 226 185 219 221 240 274 291 299 304 267 238 256 258 254 263 275 285 279 277 274 267 254 246 241 228 225 228 229
29 21 16 13 8 346 246 274 277 277 283 300 306 323 334 355 18 260 244 255 264 269 294 306 297 271 274 258 249 255 261 260 268 273 274 275 271 265 258 245 232 229 234
26 14 10 14 313 330 301 288 313 340 328 321 326 329 333 351 13 346 288 275 273 268 283 287 276 259 257 262 263 249 238 247 256 265 274 277 280 278 268 255 255 250 248
22 359 342 339 340 4 42 360 339 22 343 316 325 337 326 318 329 302 280 272 277 280 286 277 275 279 272 267 260 250 247 248 255 268 277 285 285 280 277 271 263 259 257
11 360 347 343 355 356 66 55 40 43 55 52 46 51 31 48 338 341 320 308 298 285 266 274 280 281 282 288 290 282 269 264 268 276 278 281 286 287 286 283 278 266 263
348 346 330 333 340 343 353 17 42 40 40 42 35 23 303 305 312 327 335 330 319 310 261 274 290 300 305 306 305 306 305 304 296 288 283 286 291 295 297 293 287 282 277
327 327 325 328 334 336 345 344 348 6 13 1 304 262 267 285 297 297 313 350 328 322 294 301 304 309 317 323 324 325 324 323 330 321 313 313 306 301 301 300 292 287 286
325 330 334 326 318 325 341 338 348 5 5 357 348 319 282 281 290 295 317 325 325 340 341 340 339 338 340 343 337 335 333 332 332 325 324 323 314 306 299 294 289 287 277
323 332 310 306 310 327 328 331 350 0 5 358 347 357 13 343 318 341 70 303 330 337 337 339 341 341 347 352 347 343 341 341 341 334 330 327 318 312 305 298 295 293 279
321 331 303 300 322 333 337 350 354 348 345 353 3 22 13 345 349 360 5 2 349 342 343 342 342 343 344 339 335 333 337 339 335 328 323 319 316 310 302 298 295 292 289
322 318 311 312 326 338 343 336 329 327 329 340 344 12 19 336 345 357 359 358 356 356 354 346 341 345 345 342 340 335 335 335 333 327 322 317 311 306 303 300 297 298 294
307 307 317 323 323 324 298 310 320 319 326 339 350 5 357 338 349 2 357 356 2 357 348 340 335 338 344 342 349 357 355 346 333 324 316 311 309 306 303 300 298 300 299
308 312 327 343 332 313 317 329 334 341 351 352 354 351 349 351 352 358 352 356 354 343 339 336 331 335 343 348 357 10 18 349 334 329 326 319 310 307 307 305 302 301 300
315 324 328 328 330 337 340 340 339 343 348 352 353 355 357 357 354 353 358 1 347 339 336 334 331 341 352 360 6 11 4 344 338 335 318 312 311 309 306 305 303 302 299
310 312 314 319 327 324 316 319 330 339 342 341 344 348 346 343 347 352 353 350 343 336 333 340 349 357 355 360 8 14 352 330 329 330 319 308 307 313 316 310 308 306 302